Regional Weather Roundup
Issued by NWS Northern Indiana

Home | Current Version | Previous Version | Graphics & Text | Print | Product List | Glossary On
Versions: 1 2 3 4 5 6 7 8 9 10 11 12 13 14 15 16 17 18 19 20 21 22 23 24 25 26 27 28 29 30 31 32 33 34 35 36 37 38 39 40 41 42 43 44 45 46 47 48 49 50
000
ASUS43 KIWX 241110
RWRIWX

KIWX WEATHER ROUNDUP
NATIONAL WEATHER SERVICE NORTHERN INDIANA
700 AM EDT FRI MAR 24 2017

NOTE: "FAIR" INDICATES FEW OR NO CLOUDS BELOW 12,000 FEET WITH NO
SIGNIFICANT WEATHER AND/OR OBSTRUCTIONS TO VISIBILITY.

* THESE STATIONS ARE NOT UNDER NWS QUALITY CONTROL. THEY ALSO MAY NOT
  REPORT WEATHER SUCH AS PRECIPITATION OR FOG.

INZ001>027-241200-
NORTHERN INDIANA

CITY           SKY/WX    TMP DP  RH WIND       PRES   REMARKS
GARY*          MOCLDY    52  39  62 S10       29.95R
VALPARAISO     PTCLDY    49  40  71 S12       29.98R
MICHIGAN CITY* PTCLDY    50  41  71 S13G18    29.96S
LAPORTE*       PTCLDY    46  38  74 S6        29.98R
KNOX*          PTCLDY    48  23  37 S12       29.98R
SOUTH BEND     PTCLDY    49  39  68 S10       29.99R
ELKHART*       CLOUDY    48  37  66 S7        30.00
GOSHEN         CLOUDY    50  38  63 S13       30.00R
MONTICELLO*    CLOUDY    46  39  76 S6        30.01R
LOGANSPORT*    CLOUDY    45  39  81 S8        30.04R
ROCHESTER*     PTCLDY    50  39  66 S6        30.02R
WARSAW*        CLOUDY    50  37  62 S8        30.01S
ANGOLA*        CLEAR     48  37  66 S9        30.01R
FORT WAYNE     CLOUDY    49  42  77 S13       30.05R
HUNTINGTON*    MOCLDY    50  42  72 S7        30.04S
PERU/GRISSOM   MOCLDY    51  44  76 S7        30.02R
MARION*        CLOUDY    51  42  71 S14       30.05R

$$
INZ028>050-241200-
CENTRAL INDIANA

CITY           SKY/WX    TMP DP  RH WIND       PRES   REMARKS
LAFAYETTE      PTCLDY    55  45  68 S7        30.02R
KOKOMO*        CLOUDY    50  42  74 S9        30.05R
MUNCIE*        MOCLDY    55  42  61 S17G25    30.06R
INDIANAPOLIS   PTCLDY    54  44  69 S12       30.06R

$$
MIZ043>046-050>051-056>058-064>065-071>073-077>080-241200-
SOUTHWEST LOWER MICHIGAN

CITY           SKY/WX    TMP DP  RH WIND       PRES   REMARKS
BATTLE CREEK   CLOUDY    47  39  74 S13       29.97S
BENTON HARBOR  PTCLDY    52  39  61 S9        29.95R
COLDWATER*     CLOUDY    49  38  66 S9G16     29.99S
HILLSDALE*     CLOUDY    45  36  70 S10G18    30.00R
HOLLAND        CLOUDY    50  40  68 S13       29.92S
GRAND RAPIDS   MOCLDY    46  37  71 S7        29.93S
KALAMAZOO      PTCLDY    49  38  65 S13       29.97R
STURGIS*       MOCLDY    48  40  72 S9        30.00R
THREE RIVERS*  FAIR      47  39  73 S9        29.99R

$$
OHZ001>008-015>018-024>025-241200-
NORTHWEST OHIO

CITY           SKY/WX    TMP DP  RH WIND       PRES   REMARKS
WAUSEON*       CLOUDY    46  39  76 S13       30.03S
DEFIANCE       PTCLDY    50  38  63 S16G24    30.04S
FINDLAY        MOCLDY    52  39  61 S20       30.07R
TOLEDO EXPRESS CLOUDY    48  39  71 S12       30.03F
TOLEDO METCALF CLOUDY    48  39  71 S12       30.05S
LIMA           MOCLDY    52  40  63 S15       30.09R

$$
AND FOR LAKE MICHIGAN COASTAL AND OPEN LAKE BUOY OBSERVATIONS

STATION/POSITION TEMP    WIND        PRES    VSBY  WAVE
                 AIR SEA DIR/SP/G                  HT/PER
                 (F)     (DEG/KT/KT) (MB)    (MI)  (FT/S)
CALUMET HARBOR    50     190/  8/ 12 1012.8R
MICHIGAN CITY     52     160/ 17/ 22   N/A
BURNS HARBOR      50     180/ 16/ 22 1013.9F

$$
&&




USA.gov is the U.S. government's official web portal to all federal, state and local government web resources and services.